Regional Weather Roundup
Issued by NWS

Home | Current Version | Previous Version | Graphics & Text | Print | Product List | Glossary On
Versions: 1 2 3 4 5 6 7 8 9 10 11 12 13 14 15 16 17 18 19 20 21 22 23 24 25 26 27
000
ASUS45 KCYS 210210
RWRWY

WYOMING REGIONAL WEATHER ROUNDUP
NATIONAL WEATHER SERVICE CHEYENNE WY
800 PM MDT WED SEP 20 2017

NOTE:  "FAIR" INDICATES FEW OR NO CLOUDS BELOW 12,000 FEET
WITH NO SIGNIFICANT WEATHER AND/OR OBSTRUCTIONS TO VISIBILITY.

WYZ001-210300-
YELLOWSTONE NATIONAL PARK

CITY           SKY/WX    TMP DP  RH WIND       PRES   REMARKS
LK YELLOWSTONE   N/A     36  35  96 VRB5      29.84R WCI  32
W YELLOWSTONE  NOT AVBL

$$
WYZ002>013-054>058-071-098>099-210300-
NORTHERN WYOMING

CITY           SKY/WX    TMP DP  RH WIND       PRES   REMARKS
JACKSON        CLOUDY    49  32  52 SW10      29.80R
CODY           FAIR      54  31  41 SW6       29.72S
GREYBULL       FAIR      62  28  27 SW6       29.68R
WORLAND        FAIR      57  34  41 S9        29.71S
SHERIDAN       FAIR      60  28  29 S7G16     29.68S
BUFFALO        FAIR      53  26  35 S9        29.76S
GILLETTE       FAIR      55  36  48 S6        29.75S
HULETT         FAIR      57  32  38 S9        29.78R
NEWCASTLE      FAIR      61  27  27 CALM      29.81S

$$
WYZ014>020-022>026-101>103-210300-
CENTRAL WYOMING

CITY           SKY/WX    TMP DP  RH WIND       PRES   REMARKS
BIG PINEY      CLOUDY    51  29  42 CALM      29.84F
PINEDALE       CLOUDY    48  32  53 N3        29.85F
DUBOIS         MOCLDY    45  27  49 W7        29.81F
LANDER           N/A    N/A N/A N/A MISG      29.76S
RIVERTON       FAIR      55  27  34 N5        29.78R
CASPER         FAIR      53  33  46 E6        29.80R
DOUGLAS        FAIR      54  33  45 SE3       29.81R

$$
WYZ021-027>030-104>119-210300-
SOUTHERN WYOMING

CITY           SKY/WX    TMP DP  RH WIND       PRES   REMARKS
EVANSTON       CLOUDY    56  34  43 SW7       29.79F
KEMMERER         N/A     52  32  46 CALM      29.83F
FORT BRIDGER   CLOUDY    58  33  38 E13       29.83F
ROCK SPRINGS   MOCLDY    53  33  46 N9        29.84F
DIXON          FAIR      54  40  59 E6        29.89S
RAWLINS        FAIR      55  36  48 W9        29.87S
SARATOGA       FAIR      54  36  50 E5        29.90S
LARAMIE        FAIR      54  30  40 SE14      29.93R
CHEYENNE       FAIR      61  28  28 SE10      29.90R
TORRINGTON     FAIR      66  32  28 SE13      29.79R
PINE BLUFFS    FAIR      59  28  31 SE8       29.87R

$$




USA.gov is the U.S. government's official web portal to all federal, state and local government web resources and services.